XW-2F
1 40910U 15049M 16049.38278075 .00006081 00000-0 34361-3 0 9998
2 40910 97.4548 59.0720 0018317 88.4037 26.0260 15.13320362 22776
XW-2B
1 40911U 15049N 16049.45540128 .00004287 00000-0 24514-3 0 9993
2 40911 97.4570 59.1701 0017003 89.3905 46.7114 15.13079244 22796
DCBB
1 40912U 15049P 16049.40067373 .00006763 00000-0 36224-3 0 9997
2 40912 97.4556 59.5109 0018638 85.8838 19.7438 15.15184026 22817
TW-1C
1 40926U 15051B 16049.47033747 .00019303 00000-0 58938-3 0 9990
2 40926 97.2910 87.8049 0016983 116.4298 355.4272 15.33802527 22395
TW-1A
1 40928U 15051D 16049.47508998 .00008794 00000-0 28605-3 0 9997
2 40928 97.2858 87.5284 0015914 129.9748 335.7692 15.31992913 22381
IO-86
1 40931U 15052B 16049.10925976 .00001046 00000-0 57115-4 0 9993
2 40931 5.9992 91.1401 0012674 222.7589 137.2245 14.76426365 21151
AAUSat-5
1 40948U 98067GZ 16049.62576639 .00363937 00000-0 14715-2 0 9990
2 40948 51.6399 282.2275 0007087 187.8526 172.2879 15.85523121 21313
GomX-3
1 40949U 98067HA 16049.10775786 .00047486 00000-0 44130-3 0 9991
2 40949 51.6392 290.0856 0007206 139.8147 220.3383 15.66901567 21170
LQSat
1 40958U 15057A 16049.40304687 .00000418 00000-0 73167-4 0 9997
2 40958 98.0249 125.8199 0018339 173.4208 186.7245 14.72814239 19750
AO-85
1 40967U 15058D 16049.51529480 .00001520 00000-0 17407-3 0 00439
2 40967 064.7786 248.6871 0214565 242.0308 115.8936 14.74757678005626
ATHENOXAT-1
1 41168U 15077C 16049.37902377 .00007787 00000-0 43568-3 0 9996
2 41168 14.9887 105.3574 0012873 145.8328 307.5472 15.09093414 9627
AGGIESAT4
1 41313U 98067HP 16049.23314268 .00026844 00000-0 39383-3 0 9994
2 41313 51.6450 296.1697 0006831 128.0036 232.1574 15.55303551 3036
KWANGMYONGSONG4
1 41332U 16009A 16049.40790787 .00007328 00000-0 27186-3 0 9998
2 41332 97.5274 97.9032 0025933 297.0593 119.0380 15.27589420 1732
OBJECT B
1 41338U 16012B 16049.75016273 .00000087 00000-0 00000 0 0 9994
2 41338 31.0024 307.8693 0014373 307.3436 52.5889 14.99183702 215
OBJECT C
1 41339U 16012C 16049.74994298 .00000899 00000-0 64728-4 0 9999
2 41339 31.0096 307.8640 0013998 309.9275 50.0280 14.99432670 183
OBJECT D
1 41340U 16012D 16049.74968630 .00001446 00000-0 10750-3 0 9996
2 41340 31.0072 307.8565 0014539 312.5371 47.3969 14.99709532 204
